Home > Weather > San Andrés > Past weeks

Flag for Colombia Past Weather in San Andrés, Colombia — Yesterday and Last 2 Weeks

Now
88 °F

Passing clouds.


Feels Like: 108 °F
Forecast: 83 / 88 °F
Wind: 7 mph from Northeast

Location: San Andres Isla / Sesquicentenario

Current Time: May 24, 2016 at 12:48:46 PM

Latest Report: May 24, 2016 at 12:00 PM


Visibility: N/A

Pressure: 29.94 "Hg

Humidity: 84%

Dew Point: 82 °F

Location of San AndrésLocation

Past Weather in San Andrés — Graph

°F

San Andrés Temperature Yesterday

Maximum temperature yesterday: 88 °F (at 1:00 PM)
Minimum temperature yesterday: 82 °F (at 12:00 AM)
Average temperature yesterday: 85 °F

High & Low Weather Summary for the Past Weeks

 TemperatureHumidityPressure
High88 °F (May 9, 2:00 PM)94% (May 14, 12:00 PM)29.95 "Hg (May 14, 12:00 PM)
Low79 °F (May 22, 5:00 AM)66% (May 9, 2:00 PM)29.80 "Hg (May 19, 5:00 PM)
Average84 °F83%29.87 "Hg
* Reported May 9 11:00 AM — May 24 11:00 AM, San Andrés, Weather by CustomWeather, © 2016

Note: Actual official high and low records may vary slightly from our data, if they occured in-between our weather recording intervals... More about our weather records

Advertising

San Andrés Weather History for the Previous 24 Hours

Scroll right to see more
 ConditionsComfort  
Time TempWeatherWind HumidityBarometerVisibility
11:00 AM
Tue, May 24
84 °FScattered clouds.2 mph94%29.95 "HgN/A
10:00 AM86 °FScattered clouds.8 mph84%29.94 "HgN/A
9:00 AM86 °FPartly sunny.7 mph84%29.92 "HgN/A
8:00 AM86 °FScattered clouds.8 mph84%29.89 "HgN/A
7:00 AM84 °FPassing clouds.7 mph84%29.87 "HgN/A
6:00 AM82 °FPassing clouds.7 mph89%29.85 "HgN/A
5:00 AM82 °FPassing clouds.8 mph89%29.85 "HgN/A
4:00 AM82 °FPassing clouds.8 mph89%29.84 "HgN/A
3:00 AM82 °FPassing clouds.5 mph89%29.84 "HgN/A
2:00 AM84 °FPassing clouds.8 mph84%29.85 "HgN/A
1:00 AM84 °FPassing clouds.7 mph84%29.87 "HgN/A
12:00 AM84 °FPassing clouds.6 mph84%29.88 "HgN/A
11:00 PM
Mon, May 23
84 °FPassing clouds.2 mph84%29.88 "HgN/A
10:00 PM84 °FPassing clouds.6 mph84%29.86 "HgN/A
9:00 PM84 °FPassing clouds.7 mph84%29.85 "HgN/A
8:00 PM84 °FPassing clouds.7 mph89%29.83 "HgN/A
7:00 PM84 °FPassing clouds.9 mph89%29.82 "HgN/A
6:00 PM86 °FScattered clouds.7 mph84%29.81 "HgN/A
5:00 PM88 °FScattered clouds.8 mph79%29.81 "HgN/A
4:00 PM88 °FScattered clouds.10 mph79%29.81 "HgN/A
3:00 PM88 °FPartly sunny.9 mph79%29.83 "HgN/A
2:00 PM86 °FPartly sunny.9 mph84%29.84 "HgN/A
1:00 PM88 °FScattered clouds.12 mph79%29.85 "HgN/A
12:00 PM86 °FPartly sunny.12 mph84%29.87 "HgN/A
Weather by CustomWeather, © 2016

See weather overviewHow to use our weather pages